Date String (YYYY-MM-DD hh:mm:ss) UTC,Instrument flags,absolute air pressure of the measurement (hPa),sample flow rate (lpm),inlet stack bypass flow (lpm),air temperature of the measurement (°C),ambient temperature measured by the external sensor (°C),aerosol sample conditioner tube jacket temperature (°C),OPC LED temperature (°C),internal box temperature (°C),relative humidity of the measurement (%),span deviation,mass concentration of particles derived from Lorenz-Mie calculation of OPC scattering (μg/m³),mass concentration of particles derived from Lorenz-Mie calculation of OPC scattering (μg/m³),mass concentration of particles derived from Lorenz-Mie calculation of OPC scattering (μg/m³)
DateTimeUTC,F1_M11,P_M11,Q1_M11,Q2_M11,T1_M11,T2_M11,T3_M11,T4_M11,T5_M11,U1_M11,ZSPAN_M11,X2_M11,X0_M11,X1_M11
2024-01-19 11:00:00,SystemResetWarning,0835.5,5.00,000.00,018.9,017.9,000.0,027.3,020.0,10.6,0001.7,0008.10,0015.43,0007.32
2024-01-19 11:01:00,SystemResetWarning,0835.5,5.00,000.00,018.9,017.6,000.0,027.3,020.0,10.6,0001.7,0008.25,0015.83,0007.45
2024-01-19 11:02:00,SystemResetWarning,0835.5,5.02,000.00,018.9,017.7,000.0,027.3,020.3,10.6,0001.4,0008.29,0015.13,0007.51
2024-01-19 11:03:00,SystemResetWarning,0835.6,5.00,000.00,019.0,018.5,000.0,027.2,020.7,10.6,0001.6,0008.33,0014.61,0007.59
2024-01-19 11:04:00,SystemResetWarning,0835.5,5.00,000.00,019.1,019.0,000.0,027.2,020.6,10.5,0001.3,0008.45,0014.32,0007.71
2024-01-19 11:05:00,SystemResetWarning,0835.5,4.98,000.00,019.0,018.6,000.0,027.2,020.0,10.6,0001.6,0008.56,0014.47,0007.82
2024-01-19 11:06:00,SystemResetWarning,0835.5,5.00,000.00,018.9,018.3,000.0,027.3,020.0,10.6,0001.7,0008.75,0014.40,0007.94
2024-01-19 11:07:00,SystemResetWarning,0835.5,5.01,000.00,018.9,018.0,000.0,027.3,020.0,10.6,0002.0,0008.81,0014.48,0008.00
2024-01-19 11:08:00,SystemResetWarning,0835.5,5.00,000.00,018.9,017.7,000.0,027.3,020.0,10.6,0002.2,0008.85,0014.19,0008.07
2024-01-19 11:09:00,SystemResetWarning,0835.5,5.00,000.00,018.9,017.6,000.0,027.3,020.1,10.6,0002.0,0008.87,0015.01,0008.13
2024-01-19 11:10:00,SystemResetWarning,0835.6,5.01,000.00,018.9,018.2,000.0,027.2,020.5,10.6,0002.3,0008.92,0016.32,0008.18
2024-01-19 11:11:00,SystemResetWarning,0835.6,5.00,000.00,019.1,018.9,000.0,027.2,020.8,10.5,0002.2,0009.00,0016.30,0008.26
2024-01-19 11:12:00,SystemResetWarning,0835.6,4.98,000.00,019.1,018.9,000.0,027.2,020.2,10.5,0002.1,0009.04,0016.09,0008.34
2024-01-19 11:13:00,SystemResetWarning,0835.6,5.00,000.00,019.0,018.6,000.0,027.3,020.0,10.6,0002.1,0009.17,0016.05,0008.45
2024-01-19 11:14:00,SystemResetWarning,0835.6,5.00,000.00,018.9,018.2,000.0,027.3,020.0,10.6,0001.9,0009.33,0016.05,0008.56
2024-01-19 11:15:00,SystemResetWarning,0835.6,5.00,000.00,018.9,017.9,000.0,027.3,020.0,10.6,0002.0,0009.40,0016.59,0008.63
2024-01-19 11:16:00,SystemResetWarning,0835.6,5.01,000.00,018.9,017.6,000.0,027.3,020.0,10.6,0001.8,0009.48,0017.01,0008.71
2024-01-19 11:17:00,SystemResetWarning,0835.5,5.01,000.00,018.9,017.8,000.0,027.3,020.3,10.6,0001.5,0009.48,0016.81,0008.75
2024-01-19 11:18:00,SystemResetWarning,0835.5,5.00,000.00,019.0,018.6,000.0,027.2,020.7,10.5,0001.2,0009.53,0016.56,0008.78
2024-01-19 11:19:00,SystemResetWarning,0835.5,5.00,000.00,019.1,019.0,000.0,027.2,020.5,10.5,0000.8,0009.52,0016.78,0008.78
2024-01-19 11:20:00,SystemResetWarning,0835.5,4.98,000.00,019.0,018.7,000.0,027.2,020.0,10.5,0000.7,0009.53,0016.39,0008.77
2024-01-19 11:21:00,SystemResetWarning,0835.5,5.00,000.00,018.9,018.3,000.0,027.3,020.0,10.6,0000.8,0009.52,0015.20,0008.77
2024-01-19 11:22:00,SystemResetWarning,0835.5,5.01,000.00,018.9,018.0,000.0,027.3,020.0,10.6,0000.4,0009.53,0014.58,0008.77
2024-01-19 11:23:00,SystemResetWarning,0835.5,5.00,000.00,018.9,017.7,000.0,027.3,020.0,10.6,0000.4,0009.56,0014.63,0008.79
2024-01-19 11:24:00,SystemResetWarning,0835.5,5.00,000.00,018.9,017.5,000.0,027.3,020.1,10.6,0000.0,0009.55,0014.60,0008.80
2024-01-19 11:25:00,SystemResetWarning,0835.5,5.01,000.00,018.9,018.1,000.0,027.2,020.5,10.6,0000.2,0009.45,0014.40,0008.76
2024-01-19 11:26:00,SystemResetWarning,0835.5,5.00,000.00,019.1,018.9,000.0,027.2,020.8,10.5,0000.1,0009.41,0014.06,0008.75
2024-01-19 11:27:00,SystemResetWarning,0835.5,4.99,000.00,019.0,018.8,000.0,027.2,020.1,10.6,0000.4,0009.38,0013.49,0008.73
2024-01-19 11:28:00,SystemResetWarning,0835.5,5.00,000.00,019.0,018.5,000.0,027.3,020.0,10.6,0000.4,0009.38,0013.49,0008.71
2024-01-19 11:29:00,SystemResetWarning,0835.5,5.00,000.00,018.9,018.1,000.0,027.3,020.0,10.6,0000.3,0009.35,0013.45,0008.69
2024-01-19 11:30:00,SystemResetWarning,0835.5,5.00,000.00,018.9,017.7,000.0,027.3,020.0,10.6,0000.3,0009.28,0013.39,0008.64
2024-01-19 11:31:00,SystemResetWarning,0835.4,5.00,000.00,018.9,017.5,000.0,027.3,020.0,10.7,0000.4,0009.23,0013.62,0008.61
2024-01-19 11:32:00,SystemResetWarning,0835.3,5.02,000.00,018.9,017.3,000.0,027.3,020.1,10.7,0000.4,0009.18,0013.54,0008.58
2024-01-19 11:33:00,SystemResetWarning,0835.4,5.01,000.00,018.9,018.0,000.0,027.2,020.5,10.6,0000.5,0009.12,0013.49,0008.54
2024-01-19 11:34:00,SystemResetWarning,0835.5,4.99,000.00,019.0,018.8,000.0,027.2,020.9,10.6,0000.1,0009.02,0013.26,0008.47
2024-01-19 11:35:00,SystemResetWarning,0835.5,5.00,000.00,019.1,019.2,000.0,027.2,020.6,10.5,0000.6,0008.95,0013.15,0008.39
2024-01-19 11:36:00,SystemResetWarning,0835.4,5.00,000.00,019.0,018.8,000.0,027.2,020.0,10.5,0000.7,0008.89,0013.02,0008.33
2024-01-19 11:37:00,SystemResetWarning,0835.3,4.98,000.00,019.0,018.4,000.0,027.3,020.0,10.6,0000.4,0008.84,0012.94,0008.29
2024-01-19 11:38:00,SystemResetWarning,0835.4,5.00,000.00,018.9,018.0,000.0,027.3,020.0,10.6,0000.8,0008.82,0013.13,0008.25
2024-01-19 11:39:00,SystemResetWarning,0835.3,5.00,000.00,018.9,017.8,000.0,027.3,020.0,10.6,0000.9,0008.78,0013.10,0008.24
2024-01-19 11:40:00,SystemResetWarning,0835.3,5.00,000.00,018.9,017.5,000.0,027.3,020.0,10.6,0001.1,0008.74,0013.02,0008.24
2024-01-19 11:41:00,SystemResetWarning,0835.3,5.02,000.00,018.9,017.6,000.0,027.3,020.2,10.6,0000.8,0008.77,0013.07,0008.26
2024-01-19 11:42:00,SystemResetWarning,0835.4,5.01,000.00,019.0,018.5,000.0,027.2,020.7,10.5,0000.7,0008.83,0012.74,0008.31
2024-01-19 11:43:00,SystemResetWarning,0835.5,4.98,000.00,019.1,018.8,000.0,027.2,020.5,10.4,0000.6,0008.89,0012.52,0008.35
2024-01-19 11:44:00,SystemResetWarning,0835.5,5.01,000.00,019.0,018.5,000.0,027.2,020.0,10.5,0000.5,0008.99,0012.62,0008.42
2024-01-19 11:45:00,SystemResetWarning,0835.5,5.01,000.00,018.9,018.2,000.0,027.3,020.0,10.5,0000.6,0009.12,0012.78,0008.51
2024-01-19 11:46:00,SystemResetWarning,0835.5,5.00,000.00,018.9,017.8,000.0,027.3,020.0,10.5,0000.7,0009.21,0012.88,0008.59
2024-01-19 11:47:00,SystemResetWarning,0835.5,4.99,000.00,018.9,017.6,000.0,027.3,020.0,10.5,0000.7,0009.28,0012.94,0008.69
2024-01-19 11:48:00,SystemResetWarning,0835.5,4.99,000.00,018.8,017.3,000.0,027.3,020.0,10.5,0000.8,0009.37,0013.04,0008.76
2024-01-19 11:49:00,SystemResetWarning,0835.5,5.01,000.00,018.9,017.5,000.0,027.3,020.2,10.5,0000.5,0009.41,0012.96,0008.82
2024-01-19 11:50:00,SystemResetWarning,0835.3,5.01,000.00,019.0,018.3,000.0,027.2,020.6,10.4,0000.2,0009.53,0012.94,0008.90
2024-01-19 11:51:00,SystemResetWarning,0835.3,5.00,000.00,019.1,019.1,000.0,027.2,020.9,10.4,0000.2,0009.56,0012.97,0008.93
2024-01-19 11:52:00,SystemResetWarning,0835.2,5.00,000.00,019.1,019.0,000.0,027.2,020.2,10.3,0000.6,0009.60,0012.94,0008.97
2024-01-19 11:53:00,SystemResetWarning,0835.2,4.99,000.00,019.0,018.6,000.0,027.2,020.0,10.3,0001.0,0009.65,0012.96,0009.02
2024-01-19 11:54:00,SystemResetWarning,0835.2,4.99,000.00,018.9,018.2,000.0,027.3,020.0,10.3,0001.0,0009.68,0012.98,0009.07
2024-01-19 11:55:00,SystemResetWarning,0835.4,5.01,000.00,018.9,017.9,000.0,027.3,020.0,10.3,0001.2,0009.68,0012.89,0009.08
2024-01-19 11:56:00,SystemResetWarning,0835.4,5.01,000.00,018.9,017.6,000.0,027.3,020.0,10.3,0001.4,0009.65,0012.93,0009.08
2024-01-19 11:57:00,SystemResetWarning,0835.4,5.01,000.00,018.9,017.4,000.0,027.3,020.0,10.3,0001.6,0009.63,0012.90,0009.07
2024-01-19 11:58:00,SystemResetWarning,0835.3,5.01,000.00,018.9,017.9,000.0,027.2,020.4,10.3,0001.4,0009.60,0012.81,0009.06
2024-01-19 11:59:00,SystemResetWarning,0835.4,4.99,000.00,019.0,018.6,000.0,027.2,020.7,10.2,0001.3,0009.60,0012.82,0009.05
